EN

Hourly Weather Dzierżoniów

Today, 31 October, Saturday

Time Temperature Precipitation Wind Pressure Humidity
00:00 +11°C° 0.6 mm 4 mps 740 mmHg 94%
01:00 +12°C° 0 mm 4 mps 740 mmHg 95%
02:00 +11°C° 1 mm 4 mps 740 mmHg 95%
03:00 +11°C° 1 mm 4 mps 740 mmHg 95%
04:00 +11°C° 1 mm 4 mps 740 mmHg 96%
05:00 +11°C° 0.9 mm 3 mps 741 mmHg 96%
06:00 +11°C° 0.9 mm 3 mps 741 mmHg 97%
07:00 +12°C° 0 mm 2 mps 742 mmHg 97%
08:00 +12°C° 0.3 mm 1 mps 742 mmHg 96%
09:00 +12°C° 0.3 mm 1 mps 742 mmHg 96%
10:00 +11°C° 0.3 mm 1 mps 743 mmHg 95%
11:00 +12°C° 0.1 mm 1 mps 743 mmHg 94%
12:00 +12°C° 0.1 mm 1 mps 743 mmHg 93%
13:00 +12°C° 0.1 mm 1 mps 743 mmHg 91%
14:00 +12°C° 0 mm 1 mps 743 mmHg 92%
15:00 +12°C° 0 mm 1 mps 743 mmHg 92%
16:00 +12°C° 0 mm 1 mps 743 mmHg 92%
17:00 +12°C° 0 mm 1 mps 743 mmHg 93%
18:00 +11°C° 0 mm 1 mps 743 mmHg 94%
19:00 +11°C° 0 mm 1 mps 743 mmHg 94%
20:00 +10°C° 0 mm 1 mps 743 mmHg 94%
21:00 +9°C° 0 mm 2 mps 742 mmHg 94%
22:00 +9°C° 0 mm 2 mps 742 mmHg 94%
23:00 +9°C° 0 mm 2 mps 742 mmHg 94%

Tomorrow, 1 November, Sunday

Time Temperature Precipitation Wind Pressure Humidity
00:00 +9°C° 0 mm 2 mps 742 mmHg 94%
01:00 +8°C° 0 mm 2 mps 742 mmHg 94%
02:00 +8°C° 0 mm 2 mps 742 mmHg 94%
03:00 +8°C° 0 mm 2 mps 741 mmHg 94%
04:00 +8°C° 0 mm 3 mps 741 mmHg 93%
05:00 +9°C° 0 mm 3 mps 741 mmHg 93%
06:00 +9°C° 0 mm 3 mps 741 mmHg 93%
07:00 +9°C° 0 mm 3 mps 741 mmHg 93%
08:00 +10°C° 0 mm 4 mps 740 mmHg 88%
09:00 +11°C° 0 mm 4 mps 740 mmHg 84%
10:00 +12°C° 0 mm 5 mps 740 mmHg 80%
11:00 +12°C° 0 mm 5 mps 740 mmHg 79%
12:00 +13°C° 0 mm 5 mps 739 mmHg 78%
13:00 +13°C° 0 mm 5 mps 739 mmHg 77%
14:00 +13°C° 0.2 mm 5 mps 739 mmHg 80%
15:00 +12°C° 0.2 mm 5 mps 738 mmHg 83%
16:00 +10°C° 0.2 mm 6 mps 738 mmHg 85%
17:00 +10°C° 0.5 mm 5 mps 738 mmHg 87%
18:00 +10°C° 0.5 mm 5 mps 737 mmHg 88%
19:00 +10°C° 0.5 mm 5 mps 737 mmHg 89%
20:00 +10°C° 0.2 mm 5 mps 737 mmHg 89%
21:00 +10°C° 0.2 mm 5 mps 737 mmHg 89%
22:00 +12°C° 0.2 mm 4 mps 737 mmHg 89%
23:00 +12°C° 0.3 mm 4 mps 736 mmHg 90%

Day after tomorrow, 2 November, Monday

Time Temperature Precipitation Wind Pressure Humidity
00:00 +12°C° 0.3 mm 4 mps 736 mmHg 91%
01:00 +12°C° 0.3 mm 4 mps 736 mmHg 91%
02:00 +12°C° 0 mm 3 mps 736 mmHg 91%
03:00 +12°C° 0 mm 3 mps 737 mmHg 92%
04:00 +13°C° 0 mm 3 mps 737 mmHg 92%
05:00 +13°C° 0.1 mm 3 mps 737 mmHg 92%
06:00 +13°C° 0.1 mm 3 mps 737 mmHg 92%
07:00 +13°C° 0.1 mm 3 mps 737 mmHg 92%
08:00 +13°C° 0.5 mm 3 mps 738 mmHg 92%
09:00 +13°C° 0.5 mm 3 mps 738 mmHg 92%
10:00 +13°C° 0.5 mm 3 mps 738 mmHg 93%
11:00 +13°C° 0.4 mm 3 mps 738 mmHg 93%
12:00 +14°C° 0.4 mm 3 mps 738 mmHg 93%
13:00 +14°C° 0.4 mm 3 mps 738 mmHg 93%
14:00 +14°C° 0 mm 3 mps 738 mmHg 92%
15:00 +14°C° 0 mm 3 mps 738 mmHg 92%
16:00 +14°C° 0 mm 3 mps 738 mmHg 91%
17:00 +14°C° 0 mm 3 mps 738 mmHg 91%
18:00 +14°C° 0 mm 3 mps 738 mmHg 92%
19:00 +14°C° 0 mm 3 mps 739 mmHg 92%
20:00 +13°C° 0 mm 3 mps 739 mmHg 92%
21:00 +13°C° 0 mm 3 mps 739 mmHg 93%
22:00 +13°C° 0 mm 3 mps 739 mmHg 93%
23:00 +14°C° 0 mm 3 mps 739 mmHg 92%

3 November, Tuesday

Time Temperature Precipitation Wind Pressure Humidity
00:00 +14°C° 0 mm 4 mps 739 mmHg 92%
01:00 +14°C° 0 mm 4 mps 739 mmHg 91%
02:00 +14°C° 0 mm 4 mps 739 mmHg 91%
03:00 +14°C° 0 mm 3 mps 739 mmHg 91%
04:00 +13°C° 0 mm 3 mps 740 mmHg 91%
05:00 +13°C° 0 mm 3 mps 740 mmHg 92%
06:00 +13°C° 0 mm 3 mps 740 mmHg 92%
07:00 +13°C° 0 mm 3 mps 741 mmHg 92%
08:00 +13°C° 0.1 mm 3 mps 741 mmHg 90%
09:00 +13°C° 0.1 mm 3 mps 742 mmHg 89%
10:00 +13°C° 0.1 mm 4 mps 742 mmHg 87%
11:00 +13°C° 0.1 mm 3 mps 743 mmHg 84%
12:00 +13°C° 0.1 mm 3 mps 743 mmHg 81%
13:00 +13°C° 0.1 mm 3 mps 743 mmHg 78%
14:00 +12°C° 0 mm 3 mps 744 mmHg 79%
15:00 +13°C° 0 mm 2 mps 744 mmHg 79%
16:00 +12°C° 0 mm 2 mps 744 mmHg 79%
17:00 +12°C° 0 mm 2 mps 745 mmHg 78%
18:00 +10°C° 0 mm 2 mps 745 mmHg 78%
19:00 +11°C° 0 mm 1 mps 745 mmHg 77%
20:00 +11°C° 0 mm 1 mps 746 mmHg 78%
21:00 +11°C° 0 mm 1 mps 746 mmHg 78%
22:00 +11°C° 0 mm 1 mps 746 mmHg 78%
23:00 +10°C° 0.1 mm 1 mps 746 mmHg 79%

4 November, Wednesday

Time Temperature Precipitation Wind Pressure Humidity
00:00 +10°C° 0.1 mm 1 mps 746 mmHg 79%
01:00 +10°C° 0.1 mm 1 mps 746 mmHg 80%
02:00 +10°C° 0 mm 1 mps 746 mmHg 80%
03:00 +10°C° 0 mm 1 mps 747 mmHg 81%
04:00 +9°C° 0 mm 1 mps 747 mmHg 82%
05:00 +9°C° 0 mm 1 mps 747 mmHg 82%
06:00 +9°C° 0 mm 1 mps 747 mmHg 83%
07:00 +8°C° 0 mm 1 mps 747 mmHg 84%
08:00 +9°C° 0 mm 1 mps 747 mmHg 79%
09:00 +10°C° 0 mm 1 mps 748 mmHg 73%
10:00 +11°C° 0 mm 1 mps 748 mmHg 68%
11:00 +11°C° 0 mm 1 mps 748 mmHg 66%
12:00 +11°C° 0 mm 1 mps 748 mmHg 64%
13:00 +12°C° 0 mm 1 mps 748 mmHg 61%
14:00 +11°C° 0 mm 1 mps 748 mmHg 65%
15:00 +10°C° 0 mm 1 mps 748 mmHg 69%
16:00 +10°C° 0 mm 1 mps 748 mmHg 72%
17:00 +9°C° 0 mm 1 mps 748 mmHg 74%
18:00 +8°C° 0 mm 1 mps 749 mmHg 76%
19:00 +7°C° 0 mm 1 mps 749 mmHg 77%
20:00 +7°C° 0 mm 1 mps 749 mmHg 78%
21:00 +7°C° 0 mm 1 mps 750 mmHg 79%
22:00 +6°C° 0 mm 1 mps 750 mmHg 80%
23:00 +6°C° 0 mm 1 mps 750 mmHg 81%

5 November, Thursday

Time Temperature Precipitation Wind Pressure Humidity
00:00 +6°C° 0 mm 1 mps 750 mmHg 82%
01:00 +6°C° 0 mm 1 mps 750 mmHg 84%
02:00 +6°C° 0 mm 1 mps 750 mmHg 85%
03:00 +5°C° 0 mm 1 mps 750 mmHg 86%
04:00 +5°C° 0 mm 1 mps 751 mmHg 88%
05:00 +5°C° 0 mm 1 mps 751 mmHg 89%
06:00 +4°C° 0 mm 1 mps 751 mmHg 91%
07:00 +4°C° 0 mm 1 mps 751 mmHg 92%
08:00 +5°C° 0 mm 1 mps 752 mmHg 88%
09:00 +5°C° 0 mm 2 mps 752 mmHg 84%
10:00 +6°C° 0 mm 2 mps 752 mmHg 80%
11:00 +7°C° 0 mm 2 mps 752 mmHg 77%
12:00 +8°C° 0 mm 2 mps 752 mmHg 74%
13:00 +8°C° 0 mm 2 mps 752 mmHg 72%
14:00 +7°C° 0 mm 2 mps 752 mmHg 75%
15:00 +7°C° 0 mm 2 mps 752 mmHg 78%
16:00 +6°C° 0 mm 2 mps 752 mmHg 81%
17:00 +5°C° 0 mm 2 mps 753 mmHg 83%
18:00 +6°C° 0 mm 1 mps 753 mmHg 86%
19:00 +5°C° 0 mm 1 mps 753 mmHg 89%
20:00 +5°C° 0 mm 1 mps 754 mmHg 90%
21:00 +5°C° 0 mm 1 mps 754 mmHg 91%
22:00 +4°C° 0 mm 1 mps 754 mmHg 92%
23:00 +4°C° 0 mm 1 mps 754 mmHg 92%
Show more